Location: Lucerne Valley
(34.4439°N, 116.9669°E)
Time: 11:34:13
(UTC-07:00)

Envisat - Pass Details

Date: 13 October 2017
Orbit: 764 x 766 km, 98.2° (Epoch: 18 October)

Event Time Altitude Azimuth Distance (km) Brightness Sun altitude
Exits shadow 06:15:28 11° 310° (NW) 2,250 6.0 -44.2°
Drops below altitude 10° 06:15:37 10° 311° (NW) 2,288 6.0 -44.3°
Sets 06:18:37 0° 329° (NNW) 3,233 6.8 -44.8°
